Fort Knox, KY

7:58 PM EST on December 08, 2016 (GMT -0500)
Godman Army Air Field

Weather History for KFTK - March, 2013

Change the Weather History Date:

Friday, March 22, 2013

  Actual Average Record
Temperature  
Mean Temperature 28 °F -  
Max Temperature 39 °F 56 °F 81 °F (2012)
Min Temperature 18 °F 35 °F 18 °F (2013)
Degree Days  
Heating Degree Days 36    
Moisture  
Dew Point 15 °F    
Average Humidity 53    
Maximum Humidity 83    
Minimum Humidity 33    
Precipitation  
Precipitation 0.00 in - - ()
Sea Level Pressure  
Sea Level Pressure 30.06 in    
Wind  
Wind Speed 1 mph (SE)    
Max Wind Speed 8 mph    
Max Gust Speed -    
Visibility 10 miles    
Events      
Averages and records for this station are not official NWS values.
T = Trace of Precipitation, MM = Missing Value Source: NWS Daily Summary

Daily Weather History Graph

Daily Weather History Graph

Search for Another Location

Airport or City:

Trip Planner

Search our weather history database for the weather conditions in past years. The results will help you decide how hot, cold, wet, or windy it might be!

Date:

Astronomy

Mar. 22, 2013 Rise Set
Actual Time 7:43 AM EDT 7:57 PM EDT
Civil Twilight 7:17 AM EDT 8:24 PM EDT
Nautical Twilight 6:47 AM EDT 8:54 PM EDT
Astronomical Twilight 6:15 AM EDT 9:26 PM EDT
Moon 3:28 PM EDT (3/22) 4:39 AM EDT (3/22)
Length of Visible Light 13h 06m
Length of Day
12h 13m
Waxing Gibbous, 77% of the Moon is Illuminated
Mar 22
Waxing Gibbous
Mar 27
Full
Apr 3
Last Quarter
Apr 10
New
Apr 18
First Quarter

Hourly Weather History & Observations

Time (EDT) Temp. Windchill Dew Point Humidity Pressure Visibility Wind Dir Wind Speed Gust Speed Precip Events Conditions
12:55 AM 23.7 °F - 13.3 °F 64% 30.06 in 10.0 mi Calm Calm - N/A   Clear
1:55 AM 23.2 °F - 13.5 °F 66% 30.05 in 10.0 mi Calm Calm - N/A   Clear
2:55 AM 21.9 °F - 14.4 °F 73% 30.06 in 10.0 mi Calm Calm - N/A   Clear
3:55 AM 21.0 °F - 14.4 °F 75% 30.06 in 10.0 mi Calm Calm - N/A   Clear
4:55 AM 20.3 °F - 14.4 °F 78% 30.05 in 10.0 mi Calm Calm - N/A   Partly Cloudy
5:55 AM 20.1 °F - 14.7 °F 80% 30.06 in 10.0 mi Calm Calm - N/A   Clear
6:55 AM 18.9 °F - 14.4 °F 83% 30.07 in 10.0 mi Calm Calm - N/A   Clear
7:55 AM 19.6 °F - 13.8 °F 78% 30.08 in 10.0 mi Calm Calm - N/A   Scattered Clouds
8:55 AM 25.2 °F - 15.6 °F 67% 30.10 in 10.0 mi Calm Calm - N/A   Clear
9:55 AM 28.9 °F 22.8 °F 16.3 °F 59% 30.10 in 10.0 mi East 5.8 mph - N/A   Mostly Cloudy
10:55 AM 32.7 °F 25.7 °F 14.7 °F 48% 30.10 in 10.0 mi ESE 8.1 mph - N/A   Mostly Cloudy
11:55 AM 34.7 °F 29.6 °F 13.1 °F 41% 30.09 in 10.0 mi ESE 5.8 mph - N/A   Mostly Cloudy
12:55 PM 36.1 °F - 13.8 °F 40% 30.08 in 10.0 mi Calm Calm - N/A   Overcast
1:55 PM 37.4 °F 33.8 °F 13.6 °F 38% 30.07 in 10.0 mi East 4.6 mph - N/A   Overcast
2:55 PM 38.3 °F 33.2 °F 14.0 °F 37% 30.05 in 10.0 mi SE 6.9 mph - N/A   Overcast
3:55 PM 38.8 °F 35.4 °F 13.6 °F 36% 30.04 in 10.0 mi South 4.6 mph - N/A   Overcast
4:55 PM 39.2 °F 35.0 °F 13.3 °F 35% 30.03 in 10.0 mi South 5.8 mph - N/A   Overcast
5:55 PM 39.0 °F 34.8 °F 12.0 °F 33% 30.03 in 10.0 mi South 5.8 mph - N/A   Overcast
6:55 PM 38.7 °F - 13.8 °F 36% 30.03 in 10.0 mi Calm Calm - N/A   Overcast
7:55 PM 38.3 °F - 13.6 °F 37% 30.04 in 10.0 mi Calm Calm - N/A   Overcast
8:55 PM 36.7 °F - 21.2 °F 54% 30.04 in 10.0 mi Calm Calm - N/A   Overcast
9:55 PM 37.8 °F - 14.5 °F 39% 30.03 in 10.0 mi Calm Calm - N/A   Overcast
10:55 PM 37.6 °F 35.1 °F 16.2 °F 42% 30.04 in 10.0 mi East 3.5 mph - N/A   Overcast
11:55 PM 37.0 °F - 16.9 °F 44% 30.04 in 10.0 mi Calm Calm - N/A   Overcast